(154) Bertha
ephemeris date magn radius delta ra dec elong phase
Today16 Sep 202513.42.983 AU3.963 AU11h52m+12°56'11.1°3.7°
Opposition25 Apr 202611.52.951 AU1.946 AU14h15m-13°00'178.9°0.4°
(154) Bertha - 2025-09-16
astro.vanbuitenen.nl


 
-1 year
-1 month
-1 day
Now
+1 day
+1 month
+1 year

The interactive orbit chart above shows the body's path through the solar system and its position at the given date. Green and blue lines are shown perpendicular to the ecliptic plane: Green if the path is above the ecliptic plane, blue if it is below. (Left-click and drag to rotate the view; Right-click and drag to move the view; Use scroll wheel to zoom in our out.)

The orbital elements of Bertha are:

            e (Eccentricity)                : 0.0769701
            a (Semimajor axis)              : 3.1932788
            i (Inclination)                 : 21.02200
            Ω (Longitude of ascending node) : 36.47916
            ω (Argument of perihelion)      : 167.86676
            M (Mean anomaly)                : 308.16011
            Epoch                           : 2025 May 05

            L (Longitude of perihelion)     : 25.13181
            B (Latitude of perihelion)      : 4.32416
            P (Orbital period in years)     : 5.71            
        

The light curve chart below shows the estimated development of the minor planet's magnitude.


The all-sky chart below shows the path of the minor planet over the same period as the light curve. The current position is marked yellow.





The following chart shows the path of the minor planet in the next few days. The field of view is optimized for (~10x50) binoculars and finderscopes. A more printer-friendly version of the same chart can be found below.




Ephemerides:
Date       Time       RA (2000)    DEC (2000)    delta   radius  elong  phase   PA    magn
2025-09-16 00:00 UT   11 52 13.8   +12 56 46     3.963    2.983   11.1    3.7    24   13.4 
2025-09-16 17:18 UT   11 53 14.4   +12 48 24     3.963    2.982   11.1    3.7    22   13.4 
2025-09-17 00:00 UT   11 53 37.9   +12 45 10     3.962    2.982   11.1    3.7    21   13.4 
2025-09-18 00:00 UT   11 55 02.0   +12 33 35     3.962    2.982   11.1    3.7    18   13.4 
2025-09-19 00:00 UT   11 56 26.1   +12 22 02     3.961    2.981   11.1    3.7    15   13.4 
2025-09-20 00:00 UT   11 57 50.2   +12 10 28     3.960    2.981   11.2    3.7    12   13.4 
2025-09-21 00:00 UT   11 59 14.3   +11 58 56     3.959    2.981   11.3    3.8     9   13.4 
2025-09-22 00:00 UT   12 00 38.2   +11 47 25     3.957    2.980   11.4    3.8     6   13.4 
2025-09-23 00:00 UT   12 02 02.2   +11 35 54     3.956    2.980   11.6    3.9     3   13.4 
2025-09-24 00:00 UT   12 03 26.1   +11 24 25     3.955    2.979   11.7    3.9     0   13.4 
2025-09-25 00:00 UT   12 04 50.0   +11 12 56     3.953    2.979   12.0    4.0   358   13.4 
2025-09-26 00:00 UT   12 06 13.8   +11 01 29     3.951    2.979   12.2    4.1   355   13.4 
2025-09-27 00:00 UT   12 07 37.5   +10 50 02     3.949    2.978   12.4    4.2   353   13.4 
2025-09-28 00:00 UT   12 09 01.3   +10 38 37     3.947    2.978   12.7    4.2   350   13.4 
2025-09-29 00:00 UT   12 10 24.9   +10 27 13     3.945    2.977   13.0    4.3   348   13.4 
2025-09-30 00:00 UT   12 11 48.5   +10 15 50     3.943    2.977   13.3    4.5   346   13.4 
2025-10-01 00:00 UT   12 13 12.0   +10 04 28     3.940    2.977   13.7    4.6   344   13.4 
2025-10-02 00:00 UT   12 14 35.5   +09 53 07     3.938    2.976   14.0    4.7   342   13.4 
2025-10-03 00:00 UT   12 15 58.9   +09 41 48     3.935    2.976   14.4    4.8   340   13.4 
2025-10-04 00:00 UT   12 17 22.3   +09 30 30     3.932    2.976   14.8    4.9   338   13.4 
2025-10-05 00:00 UT   12 18 45.6   +09 19 13     3.929    2.975   15.2    5.0   336   13.4 
2025-10-06 00:00 UT   12 20 08.8   +09 07 57     3.926    2.975   15.6    5.2   335   13.4 
2025-10-07 00:00 UT   12 21 31.9   +08 56 43     3.922    2.974   16.0    5.3   333   13.4 


    Terminology:
            
    delta:  distance between minor planet and earth in AU
    radius: distance between minor planet and sun in AU
    magn:   magnitude (brightness) estimate    
    ra:     right ascension in hours (24h = 360deg)
    dec:    declination in degrees
    elong:  elongation in degrees (angle sun-earth-minor planet)    
    phase:  phase angle in degrees (angle sun-minor planet-earth)        
    AU:     Astronomical Unit (mean distance between earth and sun: 149597870.7 km
    

Orbital elements provided by the MPC (Minor Planet Center).
Calculations by a modified version of AAPlus, a C# implementation of the AA+ project by PJ Naughter from the algorithms presented in the book "Astronomical Algorithms" by Jean Meeus.
NGC2000 dso catalog and star labels from VizieR as provided by the Strasbourg astronomical Data Center.
Tycho2 catalog from the ESO archive.